User: anonymous   Login
Location: Unspecified
(0.0000°N, 0.0000°E)
Time: 18:31:56
(UTC+01:00)
Language:

ARIANE DEB (SPELDA) - Orbit

View from above orbital plane
View from above orbital plane
View from above satellite
View from above satellite

Ground track
Ground track

The orbit data is extracted from the following two-line orbital elements,

1 27402U 02015D   17322.48205793 +.00000221 +00000-0 +15001-3 0  9991
2 27402 003.7888 043.5167 7070851 111.8038 332.7978 02.49298049137936
Epoch (UTC): 18 November 2017 11:34:09
Eccentricity: 0.7070851
inclination: 3.7888°
perigee height: 351 km
apogee height: 32842 km
right ascension of ascending node: 43.5167°
argument of perigee: 111.8038°
revolutions per day: 2.49298049
mean anomaly at epoch: 332.7978°
orbit number at epoch: 13793

The dashed part of the orbit path shows where the satellite is in the earth's shadow,  

DLR